Powrót do katalogu

COSMOS 2251 DEB

AktywnyLEO
NORAD 35661·DEBRIS·🇷🇺 Russia

Wystrzelony Jun 16, 1993 z Plesetsk Cosmodrome

Loading…

Następne Przeloty (najbliższe 24 godziny)

TLE

ŚwieżeSource: Space-Track

Epoka: Sep 12, 2026, 16:52 UTC

1 35661U 93036APC 26255.70340677  .00004130  00000-0  40563-3 0  9995
2 35661  74.0093 252.0141 0085980 284.7276  74.4388 14.89768026919449

Śledź COSMOS 2251 DEB w czasie rzeczywistym z AllMySat

Download on the App Store